Date String (YYYY-MM-DD hh:mm:ss) UTC,Instrument flags,Ambient pressure (hPa),Sample flow (lpm),Bypass flow (lpm),Sample temperature (°C),Ambient temperature (°C),ASC tube jacket temperature (°C),LED temperature (°C),Box temperature (°C),Sample RH (%),Span deviation,Mass concentration (μg/m³),Mass concentration (μg/m³),Mass concentration (μg/m³)
DateTimeUTC,F1_M11,P_M11,Q1_M11,Q2_M11,T1_M11,T2_M11,T3_M11,T4_M11,T5_M11,U1_M11,ZSPAN_M11,X0_M11,X2_M11,X1_M11
2021-09-29 16:00:00,,0823.7,5.01,0.00,30.1,27.4,00.0,39.2,31.4,22.4,0003.0,0017.78,0006.11,0004.97
2021-09-29 16:01:00,,0823.7,4.99,0.00,29.9,26.0,00.0,39.2,31.0,22.5,0002.8,0016.92,0006.15,0004.98
2021-09-29 16:02:00,,0823.7,5.00,0.00,29.8,26.2,00.0,39.1,31.0,22.6,0002.8,0017.00,0006.13,0004.96
2021-09-29 16:03:00,,0823.7,5.01,0.00,29.7,26.6,00.0,39.1,31.1,22.7,0002.8,0016.87,0006.13,0004.96
2021-09-29 16:04:00,,0823.7,5.00,0.00,29.7,27.1,00.0,39.0,31.2,22.8,0002.9,0016.40,0006.12,0004.94
2021-09-29 16:05:00,,0823.7,5.00,0.00,29.7,27.4,00.0,39.0,31.3,22.8,0002.8,0016.85,0006.11,0004.92
2021-09-29 16:06:00,,0823.7,5.01,0.00,29.7,27.7,00.0,38.9,31.3,22.9,0002.6,0017.56,0006.14,0004.90
2021-09-29 16:07:00,,0823.7,5.00,0.00,29.7,28.0,00.0,38.9,31.3,22.5,0002.4,0017.35,0006.14,0004.90
2021-09-29 16:08:00,,0823.7,4.99,0.00,29.7,28.1,00.0,38.9,31.4,22.5,0002.3,0017.57,0006.25,0004.90
2021-09-29 16:09:00,,0823.7,4.99,0.00,29.7,28.3,00.0,38.9,31.4,22.6,0002.3,0017.38,0006.25,0004.90
2021-09-29 16:10:00,,0823.7,5.01,0.00,29.7,28.4,00.0,38.9,31.4,22.9,0002.3,0017.15,0006.28,0004.89
2021-09-29 16:11:00,,0823.7,5.00,0.00,29.7,28.5,00.0,38.9,31.4,23.3,0002.2,0018.06,0006.33,0004.91
2021-09-29 16:12:00,,0823.6,4.99,0.00,29.7,28.6,00.0,38.9,31.4,23.0,0002.3,0018.85,0006.43,0004.93
2021-09-29 16:13:00,,0823.7,4.99,0.00,29.7,28.6,00.0,38.9,31.4,23.0,0002.3,0019.06,0006.53,0004.96
2021-09-29 16:14:00,,0823.7,5.01,0.00,29.7,28.7,00.0,38.9,31.5,23.0,0002.0,0019.47,0006.65,0005.00
2021-09-29 16:15:00,,0823.7,4.98,0.00,29.7,28.7,00.0,38.9,31.5,23.1,0002.0,0020.19,0006.79,0005.05
2021-09-29 16:16:00,,0823.7,5.01,0.00,29.7,28.8,00.0,38.9,31.5,23.4,0002.0,0019.72,0006.87,0005.08
2021-09-29 16:17:00,,0823.7,4.99,0.00,29.8,28.8,00.0,38.9,31.5,23.3,0001.9,0018.80,0006.99,0005.11
2021-09-29 16:18:00,,0823.7,5.01,0.00,29.8,28.9,00.0,38.9,31.5,23.0,0001.7,0019.23,0007.09,0005.14
2021-09-29 16:19:00,,0823.7,4.99,0.00,29.8,28.9,00.0,38.9,31.6,23.2,0001.5,0020.25,0007.15,0005.16
2021-09-29 16:20:00,,0823.7,5.01,0.00,29.8,28.9,00.0,38.9,31.6,22.8,0001.2,0021.07,0007.26,0005.20
2021-09-29 16:21:00,,0823.7,5.00,0.00,29.8,29.0,00.0,38.9,31.6,22.9,0000.9,0021.31,0007.31,0005.23
2021-09-29 16:22:00,,0823.7,5.00,0.00,29.8,29.0,00.0,38.9,31.6,22.9,0000.9,0021.07,0007.34,0005.22
2021-09-29 16:23:00,,0823.7,5.00,0.00,29.8,29.0,00.0,38.9,31.6,22.9,0000.8,0020.97,0007.38,0005.22
2021-09-29 16:24:00,,0823.7,5.00,0.00,29.9,29.1,00.0,39.0,31.7,22.7,0001.2,0021.30,0007.42,0005.23
2021-09-29 16:25:00,,0823.7,5.00,0.00,29.9,29.1,00.0,39.0,31.7,22.6,0001.5,0021.27,0007.39,0005.23
2021-09-29 16:26:00,,0823.7,5.00,0.00,29.9,29.1,00.0,39.0,31.7,22.5,0001.4,0020.88,0007.27,0005.23
2021-09-29 16:27:00,,0823.7,4.99,0.00,29.9,29.2,00.0,39.0,31.7,22.5,0001.2,0020.49,0007.21,0005.23
2021-09-29 16:28:00,,0823.7,5.00,0.00,30.0,29.2,00.0,39.0,31.8,22.7,0001.2,0020.55,0007.18,0005.23
2021-09-29 16:29:00,,0823.7,5.01,0.00,30.0,29.2,00.0,39.0,31.7,23.0,0001.2,0021.53,0007.16,0005.26
2021-09-29 16:30:00,,0823.7,5.01,0.00,30.0,28.1,00.0,39.0,31.5,23.1,0001.1,0021.12,0007.17,0005.26
2021-09-29 16:31:00,,0823.7,4.99,0.00,29.8,26.3,00.0,39.0,31.0,23.4,0001.2,0020.76,0007.19,0005.26
2021-09-29 16:32:00,,0823.7,4.99,0.00,29.7,26.0,00.0,38.9,30.9,23.8,0001.5,0019.96,0007.24,0005.27
2021-09-29 16:33:00,,0823.7,5.00,0.00,29.6,26.4,00.0,38.9,31.0,23.6,0001.8,0019.35,0007.23,0005.28
2021-09-29 16:34:00,,0823.7,5.02,0.00,29.6,26.9,00.0,38.8,31.1,23.8,0002.1,0020.45,0007.15,0005.27
2021-09-29 16:35:00,,0823.7,4.99,0.00,29.6,27.3,00.0,38.8,31.2,24.0,0002.3,0021.48,0007.11,0005.28
2021-09-29 16:36:00,,0823.7,4.99,0.00,29.6,27.6,00.0,38.8,31.2,23.9,0002.1,0022.08,0007.18,0005.29
2021-09-29 16:37:00,,0823.7,5.01,0.00,29.6,27.9,00.0,38.8,31.3,23.7,0002.3,0023.16,0007.26,0005.31
2021-09-29 16:38:00,,0823.7,4.98,0.00,29.6,28.1,00.0,38.8,31.3,23.7,0002.5,0025.02,0007.36,0005.35
2021-09-29 16:39:00,,0823.7,5.01,0.00,29.6,28.2,00.0,38.8,31.3,24.0,0002.7,0025.28,0007.32,0005.37
2021-09-29 16:40:00,,0823.7,4.99,0.00,29.6,28.3,00.0,38.8,31.4,23.8,0002.9,0024.99,0007.39,0005.38
2021-09-29 16:41:00,,0823.7,5.01,0.00,29.6,28.4,00.0,38.8,31.4,23.8,0002.9,0025.50,0007.39,0005.41
2021-09-29 16:42:00,,0823.7,4.99,0.00,29.7,28.5,00.0,38.8,31.4,24.1,0003.0,0027.56,0007.35,0005.43
2021-09-29 16:43:00,,0823.7,4.99,0.00,29.7,28.6,00.0,38.8,31.4,24.2,0002.9,0027.74,0007.28,0005.46
2021-09-29 16:44:00,,0823.7,5.00,0.00,29.7,28.7,00.0,38.8,31.5,23.8,0002.8,0027.52,0007.28,0005.50
2021-09-29 16:45:00,,0823.7,4.99,0.00,29.7,28.7,00.0,38.8,31.5,24.0,0002.6,0027.30,0007.30,0005.53
2021-09-29 16:46:00,,0823.7,5.00,0.00,29.7,28.8,00.0,38.8,31.5,24.1,0002.4,0025.70,0007.31,0005.55
2021-09-29 16:47:00,,0823.7,5.00,0.00,29.8,28.9,00.0,38.8,31.6,24.1,0002.6,0025.72,0007.24,0005.54
2021-09-29 16:48:00,,0823.7,4.99,0.00,29.8,28.9,00.0,38.8,31.6,23.9,0002.5,0025.06,0007.25,0005.56
2021-09-29 16:49:00,,0823.8,5.01,0.00,29.8,29.0,00.0,38.9,31.6,23.6,0002.6,0024.59,0007.20,0005.56
2021-09-29 16:50:00,,0823.7,4.99,0.00,29.8,29.0,00.0,38.9,31.6,23.5,0002.5,0024.32,0007.20,0005.54
2021-09-29 16:51:00,,0823.7,4.99,0.00,29.9,29.0,00.0,38.9,31.7,23.7,0002.3,0024.21,0007.12,0005.53
2021-09-29 16:52:00,,0823.7,5.01,0.00,29.9,29.1,00.0,38.9,31.7,23.3,0002.3,0023.34,0007.02,0005.50
2021-09-29 16:53:00,,0823.7,5.00,0.00,29.9,29.1,00.0,38.9,31.7,23.3,0002.1,0021.17,0006.97,0005.47
2021-09-29 16:54:00,,0823.8,5.00,0.00,29.9,29.1,00.0,38.9,31.7,23.4,0001.9,0020.51,0006.94,0005.45
2021-09-29 16:55:00,,0823.8,5.01,0.00,30.0,29.2,00.0,38.9,31.8,23.3,0002.2,0020.55,0006.92,0005.42
2021-09-29 16:56:00,,0823.8,5.00,0.00,30.0,28.4,00.0,38.9,31.6,23.3,0002.3,0019.84,0006.87,0005.40
2021-09-29 16:57:00,,0823.8,5.00,0.00,29.8,26.5,00.0,38.9,31.1,23.5,0002.4,0019.82,0006.85,0005.41
2021-09-29 16:58:00,,0823.7,4.99,0.00,29.7,26.0,00.0,38.9,30.9,23.9,0002.1,0019.03,0006.87,0005.41
2021-09-29 16:59:00,,0823.8,5.01,0.00,29.6,26.4,00.0,38.8,31.0,23.5,0002.1,0019.20,0006.80,0005.41
